| time (UTC) | temp C | wind direction | speed KPH | gust KPH | rain 1hr cm | rain 24hr cm | rain mn cm | humidity % | barometer mb |
| 20260904225315 | 16 | 257 | 8.0 | 19.3 | 0.00 | 3.40 | 0.00 | 94 | 1011.0 |
| 20260904224837 | 16 | 264 | 9.7 | 24.1 | 0.00 | 3.40 | 0.00 | 94 | 1011.0 |
| 20260904224317 | 16 | 271 | 14.5 | 25.7 | 0.00 | 3.40 | 0.00 | 94 | 1011.2 |
| 20260904223838 | 16 | 284 | 12.9 | 25.7 | 0.00 | 3.40 | 0.00 | 94 | 1011.1 |
| 20260904223320 | 16 | 274 | 11.3 | 20.9 | 0.00 | 3.40 | 0.00 | 95 | 1010.8 |
| 20260904222822 | 16 | 253 | 9.7 | 20.9 | 0.00 | 3.40 | 0.00 | 95 | 1010.8 |
| 20260904222325 | 16 | 264 | 9.7 | 20.9 | 0.00 | 3.40 | 0.00 | 95 | 1010.8 |
| 20260904221828 | 16 | 262 | 6.4 | 17.7 | 0.00 | 3.40 | 0.00 | 95 | 1010.7 |
| 20260904221331 | 16 | 272 | 6.4 | 19.3 | 0.00 | 3.40 | 0.00 | 95 | 1010.6 |
| 20260904220813 | 16 | 267 | 11.3 | 19.3 | 0.00 | 3.40 | 0.00 | 95 | 1010.4 |
| 20260904220336 | 16 | 272 | 6.4 | 17.7 | 0.00 | 3.40 | 0.00 | 95 | 1010.4 |
| 20260904215813 | 16 | 275 | 8.0 | 16.1 | 0.00 | 3.40 | 0.69 | 95 | 1010.3 |
| 20260904215336 | 16 | 286 | 6.4 | 16.1 | 0.00 | 3.40 | 0.69 | 95 | 1010.4 |
| 20260904214817 | 16 | 269 | 6.4 | 16.1 | 0.00 | 3.40 | 0.69 | 95 | 1010.3 |
| 20260904214317 | 16 | 276 | 6.4 | 14.5 | 0.10 | 3.40 | 0.69 | 95 | 1010.1 |
| 20260904213817 | 16 | 266 | 6.4 | 14.5 | 0.10 | 3.40 | 0.69 | 95 | 1009.9 |
| 20260904213317 | 16 | 258 | 6.4 | 12.9 | 0.10 | 3.40 | 0.69 | 95 | 1009.9 |
| 20260904212817 | 16 | 279 | 4.8 | 16.1 | 0.10 | 3.40 | 0.69 | 95 | 1009.9 |
| 20260904212316 | 16 | 274 | 9.7 | 16.1 | 0.10 | 3.40 | 0.69 | 95 | 1010.1 |
| 20260904211816 | 16 | 267 | 4.8 | 14.5 | 0.20 | 3.40 | 0.69 | 95 | 1009.9 |
| 20260904211336 | 16 | 260 | 8.0 | 19.3 | 0.41 | 3.40 | 0.69 | 95 | 1010.0 |
| 20260904210815 | 16 | 273 | 6.4 | 19.3 | 0.61 | 3.40 | 0.69 | 95 | 1009.9 |
| 20260904210316 | 16 | 248 | 8.0 | 14.5 | 0.79 | 3.40 | 0.69 | 95 | 1009.7 |
| 20260904205816 | 16 | 245 | 8.0 | 14.5 | 0.79 | 3.40 | 0.69 | 95 | 1009.6 |
| 20260904205318 | 16 | 275 | 8.0 | 14.5 | 0.89 | 3.40 | 0.69 | 95 | 1009.4 |
| 20260904204820 | 16 | 281 | 4.8 | 17.7 | 0.79 | 3.30 | 0.66 | 95 | 1009.1 |
| 20260904204323 | 16 | 267 | 4.8 | 22.5 | 0.79 | 3.30 | 0.66 | 95 | 1009.4 |
| 20260904203826 | 16 | 239 | 6.4 | 14.5 | 0.79 | 3.30 | 0.66 | 95 | 1009.5 |
| 20260904203327 | 16 | 274 | 8.0 | 19.3 | 0.89 | 3.30 | 0.66 | 95 | 1009.2 |
| 20260904202831 | 16 | 273 | 6.4 | 16.1 | 0.89 | 3.30 | 0.66 | 95 | 1009.2 |
| 20260904202353 | 16 | 237 | 8.0 | 16.1 | 0.99 | 3.30 | 0.66 | 95 | 1009.2 |
| 20260904201851 | 16 | 226 | 8.0 | 19.3 | 0.99 | 3.20 | 0.64 | 95 | 1009.3 |
| 20260904201352 | 16 | 271 | 6.4 | 19.3 | 0.79 | 3.00 | 0.61 | 95 | 1009.2 |
| 20260904200813 | 16 | 268 | 8.0 | 16.1 | 0.61 | 2.79 | 0.56 | 95 | 1009.1 |
| 20260904200317 | 16 | 259 | 8.0 | 16.1 | 0.41 | 2.59 | 0.51 | 95 | 1009.0 |
| 20260904195820 | 16 | 263 | 8.0 | 16.1 | 0.51 | 2.59 | 0.51 | 95 | 1008.7 |
| 20260904195341 | 16 | 221 | 6.4 | 16.1 | 0.41 | 2.49 | 0.51 | 94 | 1008.5 |
| 20260904194822 | 16 | 274 | 9.7 | 16.1 | 0.51 | 2.49 | 0.51 | 94 | 1008.8 |
| 20260904194324 | 16 | 279 | 4.8 | 19.3 | 0.61 | 2.49 | 0.51 | 94 | 1008.7 |
| 20260904193827 | 16 | 271 | 9.7 | 19.3 | 0.61 | 2.49 | 0.51 | 94 | 1008.8 |
| 20260904193328 | 16 | 204 | 9.7 | 20.9 | 0.71 | 2.39 | 0.48 | 94 | 1008.6 |
| 20260904192850 | 16 | 260 | 9.7 | 22.5 | 0.79 | 2.31 | 0.46 | 94 | 1008.9 |
| 20260904192352 | 15 | 233 | 12.9 | 22.5 | 0.79 | 2.31 | 0.46 | 94 | 1008.8 |
| 20260904191813 | 15 | 229 | 4.8 | 17.7 | 0.79 | 2.21 | 0.43 | 93 | 1008.2 |
| 20260904191315 | 16 | 278 | 3.2 | 19.3 | 0.79 | 2.21 | 0.43 | 93 | 1008.7 |
| 20260904190816 | 16 | 277 | 9.7 | 19.3 | 0.79 | 2.21 | 0.43 | 93 | 1008.9 |
| 20260904190316 | 16 | 278 | 8.0 | 16.1 | 0.79 | 2.21 | 0.43 | 92 | 1008.9 |
| 20260904185818 | 16 | 237 | 8.0 | 22.5 | 0.71 | 2.11 | 0.43 | 92 | 1008.9 |
| 20260904185319 | 16 | 255 | 12.9 | 22.5 | 0.61 | 2.01 | 0.41 | 91 | 1009.4 |
| 20260904184821 | 16 | 263 | 9.7 | 22.5 | 0.61 | 2.01 | 0.41 | 91 | 1009.2 |
| 20260904184320 | 16 | 269 | 12.9 | 25.7 | 0.51 | 1.91 | 0.38 | 90 | 1009.4 |
| 20260904183841 | 16 | 262 | 8.0 | 20.9 | 0.41 | 1.80 | 0.36 | 89 | 1009.4 |
| 20260904183322 | 17 | 274 | 11.3 | 24.1 | 0.30 | 1.70 | 0.33 | 87 | 1009.5 |
| 20260904182824 | 17 | 294 | 8.0 | 29.0 | 0.10 | 1.50 | 0.30 | 84 | 1009.4 |
| 20260904182346 | 18 | 288 | 14.5 | 29.0 | 0.10 | 1.50 | 0.30 | 81 | 1009.5 |
| 20260904181848 | 18 | 303 | 12.9 | 29.0 | 0.00 | 1.40 | 0.28 | 80 | 1009.4 |
| 20260904181330 | 18 | 330 | 11.3 | 25.7 | 0.00 | 1.40 | 0.28 | 81 | 1009.1 |
| 20260904180851 | 18 | 316 | 8.0 | 16.1 | 0.00 | 1.40 | 0.28 | 83 | 1008.7 |
| 20260904180314 | 18 | 338 | 4.8 | 11.3 | 0.00 | 1.40 | 0.28 | 85 | 1009.0 |
| 20260904175837 | 18 | 296 | 4.8 | 9.7 | 0.00 | 1.40 | 0.28 | 85 | 1008.8 |
| 20260904175321 | 18 | 331 | 3.2 | 11.3 | 0.00 | 1.40 | 0.28 | 85 | 1008.7 |
| 20260904174824 | 18 | 319 | 4.8 | 11.3 | 0.00 | 1.40 | 0.28 | 85 | 1008.4 |
| 20260904174329 | 18 | 248 | 6.4 | 12.9 | 0.00 | 1.40 | 0.28 | 85 | 1008.3 |
| 20260904173813 | 18 | 261 | 4.8 | 17.7 | 0.00 | 1.40 | 0.28 | 85 | 1007.9 |
| 20260904173317 | 18 | 278 | 8.0 | 17.7 | 0.00 | 1.40 | 0.28 | 86 | 1007.8 |
| 20260904172841 | 18 | 291 | 6.4 | 20.9 | 0.00 | 1.40 | 0.28 | 86 | 1007.6 |
| 20260904172324 | 18 | 262 | 6.4 | 20.9 | 0.00 | 1.40 | 0.28 | 88 | 1007.5 |
| 20260904171826 | 17 | 250 | 11.3 | 20.9 | 0.00 | 1.40 | 0.28 | 90 | 1007.7 |
| 20260904171331 | 17 | 313 | 9.7 | 24.1 | 0.00 | 1.40 | 0.28 | 93 | 1007.7 |
| 20260904170836 | 17 | 275 | 8.0 | 29.0 | 0.30 | 1.40 | 0.28 | 96 | 1007.5 |
| 20260904170317 | 17 | 274 | 9.7 | 29.0 | 1.40 | 1.40 | 0.28 | 97 | 1007.4 |
| 20260904165819 | 17 | 271 | 12.9 | 29.0 | 1.40 | 1.40 | 0.28 | 97 | 1007.5 |
| 20260904165323 | 17 | 293 | 8.0 | 22.5 | 1.40 | 1.40 | 0.28 | 97 | 1007.5 |
| 20260904164826 | 17 | 281 | 8.0 | 30.6 | 1.40 | 1.40 | 0.28 | 96 | 1007.1 |
| 20260904164329 | 17 | 292 | 12.9 | 37.0 | 1.40 | 1.40 | 0.28 | 96 | 1006.9 |
| 20260904163832 | 17 | 321 | 11.3 | 37.0 | 1.40 | 1.40 | 0.28 | 96 | 1007.0 |
| 20260904163313 | 17 | 307 | 8.0 | 20.9 | 1.40 | 1.40 | 0.28 | 96 | 1007.2 |
| 20260904162816 | 17 | 265 | 6.4 | 20.9 | 1.40 | 1.40 | 0.28 | 96 | 1007.0 |
| 20260904162319 | 17 | 325 | 8.0 | 38.6 | 1.40 | 1.40 | 0.28 | 95 | 1007.0 |
| 20260904161822 | 18 | 300 | 12.9 | 53.1 | 1.40 | 1.40 | 0.28 | 92 | 1006.9 |
| 20260904161324 | 19 | 297 | 19.3 | 54.7 | 1.40 | 1.40 | 0.28 | 90 | 1007.4 |
| 20260904160825 | 22 | 304 | 25.7 | 54.7 | 1.09 | 1.09 | 0.23 | 82 | 1007.0 |
| 20260904160347 | 26 | 274 | 17.7 | 41.8 | 0.00 | 0.00 | 0.00 | 66 | 1005.3 |
| 20260904155829 | 26 | 250 | 22.5 | 41.8 | 0.00 | 0.00 | 0.00 | 64 | 1004.8 |
| 20260904155330 | 26 | 274 | 19.3 | 35.4 | 0.00 | 0.00 | 0.00 | 64 | 1004.8 |
| 20260904154852 | 26 | 258 | 11.3 | 29.0 | 0.00 | 0.00 | 0.00 | 65 | 1004.7 |
| 20260904154313 | 26 | 280 | 14.5 | 29.0 | 0.00 | 0.00 | 0.00 | 65 | 1004.8 |
| 20260904153815 | 26 | 258 | 14.5 | 29.0 | 0.00 | 0.00 | 0.00 | 64 | 1004.8 |
| 20260904153336 | 26 | 249 | 12.9 | 30.6 | 0.00 | 0.00 | 0.00 | 65 | 1004.8 |
| 20260904152816 | 26 | 260 | 17.7 | 35.4 | 0.00 | 0.00 | 0.00 | 64 | 1004.8 |
| 20260904152337 | 26 | 246 | 19.3 | 37.0 | 0.00 | 0.00 | 0.00 | 64 | 1004.8 |
| 20260904151818 | 26 | 239 | 14.5 | 41.8 | 0.00 | 0.00 | 0.00 | 65 | 1004.9 |
| 20260904151319 | 26 | 277 | 19.3 | 41.8 | 0.00 | 0.00 | 0.00 | 65 | 1005.0 |
| 20260904150823 | 26 | 278 | 17.7 | 40.2 | 0.00 | 0.00 | 0.00 | 65 | 1005.0 |
| 20260904150347 | 26 | 279 | 24.1 | 49.9 | 0.00 | 0.00 | 0.00 | 65 | 1005.5 |
| 20260904145829 | 26 | 274 | 20.9 | 49.9 | 0.00 | 0.00 | 0.00 | 65 | 1004.9 |
| 20260904145330 | 26 | 267 | 14.5 | 40.2 | 0.00 | 0.00 | 0.00 | 65 | 1005.2 |
| 20260904144813 | 26 | 283 | 19.3 | 40.2 | 0.00 | 0.00 | 0.00 | 65 | 1005.4 |
| 20260904144316 | 26 | 181 | 11.3 | 46.7 | 0.00 | 0.00 | 0.00 | 66 | 1005.1 |
| 20260904143819 | 26 | 234 | 19.3 | 46.7 | 0.00 | 0.00 | 0.00 | 66 | 1005.3 |
| 20260904143319 | 26 | 256 | 19.3 | 37.0 | 0.00 | 0.00 | 0.00 | 66 | 1005.3 |
| 20260904142822 | 26 | 248 | 14.5 | 41.8 | 0.00 | 0.00 | 0.00 | 66 | 1005.4 |
| 20260904142326 | 26 | 279 | 19.3 | 41.8 | 0.00 | 0.00 | 0.00 | 66 | 1005.4 |
| 20260904141847 | 26 | 222 | 12.9 | 35.4 | 0.00 | 0.00 | 0.00 | 67 | 1005.4 |
| 20260904141326 | 26 | 244 | 16.1 | 35.4 | 0.00 | 0.00 | 0.00 | 67 | 1005.6 |
| 20260904140828 | 26 | 262 | 16.1 | 33.8 | 0.00 | 0.00 | 0.00 | 67 | 1005.7 |
| 20260904140332 | 26 | 217 | 16.1 | 33.8 | 0.00 | 0.00 | 0.00 | 67 | 1005.8 |
| 20260904135815 | 26 | 278 | 16.1 | 30.6 | 0.00 | 0.00 | 0.00 | 67 | 1005.8 |
| 20260904135320 | 26 | 264 | 14.5 | 33.8 | 0.00 | 0.00 | 0.00 | 67 | 1005.9 |
| 20260904134824 | 26 | 272 | 17.7 | 35.4 | 0.00 | 0.00 | 0.00 | 67 | 1005.8 |
| 20260904134327 | 26 | 280 | 11.3 | 35.4 | 0.00 | 0.00 | 0.00 | 67 | 1005.9 |
| 20260904133829 | 26 | 229 | 14.5 | 30.6 | 0.00 | 0.00 | 0.00 | 67 | 1006.0 |
| 20260904133313 | 26 | 278 | 14.5 | 30.6 | 0.00 | 0.00 | 0.00 | 67 | 1006.2 |
| 20260904132815 | 25 | 283 | 9.7 | 30.6 | 0.00 | 0.00 | 0.00 | 68 | 1006.1 |
| 20260904132317 | 25 | 259 | 14.5 | 30.6 | 0.00 | 0.00 | 0.00 | 68 | 1006.2 |
| 20260904131819 | 25 | 198 | 17.7 | 30.6 | 0.00 | 0.00 | 0.00 | 68 | 1006.3 |
| 20260904131319 | 25 | 190 | 11.3 | 32.2 | 0.00 | 0.00 | 0.00 | 69 | 1006.4 |
| 20260904130842 | 25 | 243 | 12.9 | 32.2 | 0.00 | 0.00 | 0.00 | 69 | 1006.4 |
| 20260904130321 | 25 | 256 | 19.3 | 32.2 | 0.00 | 0.00 | 0.00 | 69 | 1006.5 |
| 20260904125821 | 25 | 230 | 12.9 | 27.4 | 0.00 | 0.00 | 0.00 | 69 | 1006.6 |
| 20260904125321 | 25 | 238 | 14.5 | 25.7 | 0.00 | 0.00 | 0.00 | 69 | 1006.8 |
| 20260904124821 | 25 | 210 | 11.3 | 25.7 | 0.00 | 0.00 | 0.00 | 69 | 1006.9 |
| 20260904124324 | 25 | 232 | 12.9 | 24.1 | 0.00 | 0.00 | 0.00 | 68 | 1006.9 |
| 20260904123826 | 25 | 264 | 12.9 | 30.6 | 0.00 | 0.00 | 0.00 | 68 | 1007.0 |
| 20260904123329 | 25 | 232 | 16.1 | 30.6 | 0.00 | 0.00 | 0.00 | 68 | 1007.1 |
| 20260904122831 | 25 | 263 | 12.9 | 32.2 | 0.00 | 0.00 | 0.00 | 67 | 1007.2 |
| 20260904122313 | 25 | 238 | 14.5 | 32.2 | 0.00 | 0.00 | 0.00 | 67 | 1007.3 |
| 20260904121815 | 25 | 264 | 8.0 | 27.4 | 0.00 | 0.00 | 0.00 | 68 | 1007.4 |
| 20260904121317 | 25 | 271 | 17.7 | 29.0 | 0.00 | 0.00 | 0.00 | 68 | 1007.4 |
| 20260904120819 | 25 | 239 | 16.1 | 29.0 | 0.00 | 0.00 | 0.00 | 68 | 1007.5 |
| 20260904120322 | 25 | 236 | 9.7 | 29.0 | 0.00 | 0.00 | 0.00 | 68 | 1007.6 |
| 20260904115824 | 25 | 259 | 12.9 | 24.1 | 0.00 | 0.00 | 0.00 | 69 | 1007.8 |
| 20260904115327 | 24 | 265 | 12.9 | 35.4 | 0.00 | 0.00 | 0.00 | 69 | 1007.9 |
| 20260904114830 | 24 | 266 | 17.7 | 35.4 | 0.00 | 0.00 | 0.00 | 69 | 1008.0 |
| 20260904114313 | 25 | 257 | 16.1 | 33.8 | 0.00 | 0.00 | 0.00 | 69 | 1008.1 |
| 20260904113815 | 25 | 259 | 17.7 | 33.8 | 0.00 | 0.00 | 0.00 | 69 | 1008.2 |
| 20260904113315 | 25 | 261 | 16.1 | 35.4 | 0.00 | 0.00 | 0.00 | 69 | 1008.2 |
| 20260904112816 | 25 | 268 | 14.5 | 35.4 | 0.00 | 0.00 | 0.00 | 69 | 1008.2 |
| 20260904112317 | 24 | 259 | 16.1 | 29.0 | 0.00 | 0.00 | 0.00 | 70 | 1008.3 |
| 20260904111838 | 24 | 282 | 16.1 | 29.0 | 0.00 | 0.00 | 0.00 | 71 | 1008.4 |
| 20260904111318 | 24 | 286 | 14.5 | 24.1 | 0.00 | 0.00 | 0.00 | 71 | 1008.6 |
| 20260904110837 | 23 | 246 | 12.9 | 30.6 | 0.00 | 0.00 | 0.00 | 72 | 1008.7 |
| 20260904110318 | 23 | 279 | 19.3 | 35.4 | 0.00 | 0.00 | 0.00 | 72 | 1008.8 |
| 20260904105820 | 23 | 209 | 12.9 | 35.4 | 0.00 | 0.00 | 0.00 | 72 | 1008.9 |
| 20260904105323 | 23 | 266 | 8.0 | 33.8 | 0.00 | 0.00 | 0.00 | 72 | 1009.0 |
| 20260904104826 | 23 | 243 | 16.1 | 33.8 | 0.00 | 0.00 | 0.00 | 72 | 1009.0 |
| 20260904104328 | 23 | 333 | 17.7 | 33.8 | 0.00 | 0.00 | 0.00 | 72 | 1009.1 |
| 20260904103831 | 23 | 226 | 14.5 | 33.8 | 0.00 | 0.00 | 0.00 | 73 | 1009.1 |
| 20260904103332 | 23 | 245 | 17.7 | 30.6 | 0.00 | 0.00 | 0.00 | 73 | 1009.1 |
| 20260904102850 | 23 | 255 | 11.3 | 30.6 | 0.00 | 0.00 | 0.00 | 74 | 1009.0 |
| 20260904102329 | 23 | 250 | 9.7 | 25.7 | 0.00 | 0.00 | 0.00 | 75 | 1009.3 |
| 20260904101830 | 22 | 273 | 11.3 | 30.6 | 0.00 | 0.00 | 0.00 | 75 | 1009.2 |
| 20260904101350 | 22 | 351 | 14.5 | 30.6 | 0.00 | 0.00 | 0.00 | 76 | 1009.5 |
| 20260904100813 | 22 | 264 | 16.1 | 29.0 | 0.00 | 0.00 | 0.00 | 76 | 1009.6 |
| 20260904100317 | 22 | 260 | 12.9 | 25.7 | 0.00 | 0.00 | 0.00 | 77 | 1009.5 |
| 20260904095819 | 22 | 276 | 12.9 | 25.7 | 0.00 | 0.00 | 0.00 | 77 | 1009.5 |
| 20260904095321 | 22 | 242 | 8.0 | 29.0 | 0.00 | 0.00 | 0.00 | 77 | 1009.7 |
| 20260904094823 | 22 | 219 | 14.5 | 29.0 | 0.00 | 0.00 | 0.00 | 77 | 1009.7 |
| 20260904094324 | 22 | 79 | 8.0 | 33.8 | 0.00 | 0.00 | 0.00 | 78 | 1009.7 |
| 20260904093824 | 22 | 275 | 17.7 | 33.8 | 0.00 | 0.00 | 0.00 | 77 | 1009.8 |
| 20260904093324 | 22 | 269 | 12.9 | 24.1 | 0.00 | 0.00 | 0.00 | 78 | 1010.0 |
| 20260904092825 | 22 | 262 | 12.9 | 24.1 | 0.00 | 0.00 | 0.00 | 78 | 1010.2 |
| 20260904092323 | 22 | 282 | 9.7 | 20.9 | 0.00 | 0.00 | 0.00 | 79 | 1010.4 |
| 20260904091824 | 22 | 210 | 9.7 | 27.4 | 0.00 | 0.00 | 0.00 | 79 | 1010.5 |
| 20260904091326 | 22 | 225 | 9.7 | 27.4 | 0.00 | 0.00 | 0.00 | 79 | 1010.5 |
| 20260904090829 | 22 | 258 | 14.5 | 25.7 | 0.00 | 0.00 | 0.00 | 79 | 1010.6 |
| 20260904090351 | 22 | 249 | 14.5 | 25.7 | 0.00 | 0.00 | 0.00 | 78 | 1010.7 |
| 20260904085832 | 22 | 232 | 11.3 | 24.1 | 0.00 | 0.00 | 0.00 | 79 | 1010.7 |
| 20260904085312 | 21 | 280 | 12.9 | 38.6 | 0.00 | 0.00 | 0.00 | 79 | 1010.8 |
| 20260904084814 | 21 | 236 | 12.9 | 38.6 | 0.00 | 0.00 | 0.00 | 80 | 1010.8 |
| 20260904084315 | 21 | 226 | 16.1 | 29.0 | 0.00 | 0.00 | 0.00 | 80 | 1010.8 |
| 20260904083836 | 21 | 141 | 11.3 | 22.5 | 0.00 | 0.00 | 0.00 | 80 | 1010.9 |
| 20260904083341 | 21 | 283 | 12.9 | 29.0 | 0.00 | 0.00 | 0.00 | 80 | 1010.9 |
| 20260904082824 | 21 | 163 | 9.7 | 29.0 | 0.00 | 0.00 | 0.00 | 80 | 1011.0 |
| 20260904082323 | 21 | 215 | 8.0 | 19.3 | 0.00 | 0.00 | 0.00 | 81 | 1011.0 |
| 20260904081823 | 21 | 255 | 9.7 | 19.3 | 0.00 | 0.00 | 0.00 | 81 | 1011.1 |
| 20260904081324 | 21 | 172 | 9.7 | 22.5 | 0.00 | 0.00 | 0.00 | 81 | 1011.2 |
| 20260904080824 | 21 | 277 | 11.3 | 24.1 | 0.00 | 0.00 | 0.00 | 81 | 1011.3 |
| 20260904080325 | 20 | 207 | 9.7 | 24.1 | 0.00 | 0.00 | 0.00 | 82 | 1011.4 |
| 20260904075826 | 20 | 280 | 11.3 | 25.7 | 0.00 | 0.00 | 0.00 | 81 | 1011.3 |
| 20260904075327 | 20 | 239 | 9.7 | 25.7 | 0.00 | 0.00 | 0.00 | 81 | 1011.2 |
| 20260904074329 | 20 | 241 | 9.7 | 16.1 | 0.00 | 0.00 | 0.00 | 81 | 1011.3 |
| 20260904073829 | 20 | 288 | 8.0 | 17.7 | 0.00 | 0.00 | 0.00 | 82 | 1011.3 |
| 20260904073346 | 20 | 184 | 8.0 | 19.3 | 0.00 | 0.00 | 0.00 | 82 | 1011.5 |
| 20260904072825 | 20 | 246 | 9.7 | 22.5 | 0.00 | 0.00 | 0.00 | 82 | 1011.7 |
| 20260904072326 | 20 | 258 | 12.9 | 22.5 | 0.00 | 0.00 | 0.00 | 82 | 1011.8 |
| 20260904071827 | 20 | 238 | 11.3 | 20.9 | 0.00 | 0.00 | 0.00 | 83 | 1011.9 |
| 20260904071328 | 20 | 238 | 8.0 | 16.1 | 0.00 | 0.00 | 0.00 | 83 | 1011.9 |
| 20260904070829 | 20 | 235 | 6.4 | 16.1 | 0.00 | 0.00 | 0.00 | 83 | 1012.1 |
| 20260904070330 | 20 | 245 | 8.0 | 16.1 | 0.00 | 0.00 | 0.00 | 83 | 1012.1 |
| 20260904065831 | 20 | 215 | 4.8 | 14.5 | 0.00 | 0.00 | 0.00 | 83 | 1012.0 |
| 20260904065313 | 20 | 217 | 4.8 | 14.5 | 0.00 | 0.00 | 0.00 | 84 | 1011.9 |
| 20260904064836 | 20 | 227 | 6.4 | 14.5 | 0.00 | 0.00 | 0.00 | 84 | 1011.9 |
| 20260904064318 | 19 | 224 | 8.0 | 12.9 | 0.00 | 0.00 | 0.00 | 84 | 1012.0 |
| 20260904063820 | 19 | 245 | 6.4 | 17.7 | 0.00 | 0.00 | 0.00 | 84 | 1012.1 |
| 20260904063322 | 19 | 263 | 8.0 | 17.7 | 0.00 | 0.00 | 0.00 | 84 | 1012.2 |
| 20260904062824 | 19 | 155 | 6.4 | 14.5 | 0.00 | 0.00 | 0.00 | 85 | 1012.2 |
| 20260904062327 | 18 | 228 | 6.4 | 14.5 | 0.00 | 0.00 | 0.00 | 85 | 1012.3 |
| 20260904061827 | 18 | 257 | 3.2 | 9.7 | 0.00 | 0.00 | 0.00 | 85 | 1012.3 |
| 20260904061341 | 18 | 250 | 4.8 | 9.7 | 0.00 | 0.00 | 0.00 | 86 | 1012.3 |
| 20260904060819 | 18 | 244 | 6.4 | 9.7 | 0.00 | 0.00 | 0.00 | 86 | 1012.5 |
| 20260904060340 | 18 | 207 | 4.8 | 9.7 | 0.00 | 0.00 | 0.00 | 86 | 1012.5 |
| 20260904055820 | 18 | 222 | 4.8 | 9.7 | 0.00 | 0.00 | 0.00 | 86 | 1012.5 |
| 20260904055319 | 18 | 278 | 4.8 | 11.3 | 0.00 | 0.00 | 0.00 | 87 | 1012.7 |
| 20260904054821 | 18 | 246 | 3.2 | 11.3 | 0.00 | 0.00 | 0.00 | 87 | 1012.8 |
| 20260904054320 | 18 | 231 | 4.8 | 12.9 | 0.00 | 0.00 | 0.00 | 87 | 1012.7 |
| 20260904053815 | 18 | 186 | 6.4 | 12.9 | 0.00 | 0.00 | 0.00 | 87 | 1012.8 |
| 20260904053314 | 18 | 252 | 6.4 | 11.3 | 0.00 | 0.00 | 0.00 | 87 | 1012.9 |
| 20260904052817 | 18 | 236 | 6.4 | 11.3 | 0.00 | 0.00 | 0.00 | 88 | 1012.9 |
| 20260904052339 | 17 | 248 | 3.2 | 11.3 | 0.00 | 0.00 | 0.00 | 88 | 1012.7 |
| 20260904051820 | 17 | 286 | 6.4 | 11.3 | 0.00 | 0.00 | 0.00 | 88 | 1012.8 |
| 20260904051322 | 17 | 260 | 6.4 | 12.9 | 0.00 | 0.00 | 0.00 | 88 | 1012.9 |
| 20260904050825 | 17 | 278 | 6.4 | 12.9 | 0.00 | 0.00 | 0.00 | 88 | 1012.9 |
| 20260904050327 | 17 | 243 | 4.8 | 9.7 | 0.00 | 0.00 | 0.00 | 88 | 1012.9 |
| 20260904045830 | 17 | 225 | 4.8 | 12.9 | 0.00 | 0.00 | 0.00 | 88 | 1012.9 |
| 20260904045333 | 17 | 257 | 3.2 | 12.9 | 0.00 | 0.00 | 0.00 | 88 | 1012.9 |
| 20260904044815 | 17 | 223 | 3.2 | 12.9 | 0.00 | 0.00 | 0.00 | 88 | 1013.1 |
| 20260904044318 | 17 | 265 | 4.8 | 11.3 | 0.00 | 0.00 | 0.00 | 88 | 1013.1 |
| 20260904043840 | 17 | 269 | 4.8 | 9.7 | 0.00 | 0.00 | 0.00 | 88 | 1013.1 |
| 20260904043322 | 17 | 278 | 4.8 | 9.7 | 0.00 | 0.00 | 0.00 | 88 | 1013.2 |
| 20260904042824 | 17 | 248 | 3.2 | 9.7 | 0.00 | 0.00 | 0.00 | 87 | 1013.1 |
| 20260904042325 | 17 | 238 | 3.2 | 8.0 | 0.00 | 0.00 | 0.00 | 87 | 1013.2 |
| 20260904041827 | 17 | 247 | 4.8 | 9.7 | 0.00 | 0.00 | 0.00 | 87 | 1013.4 |
| 20260904041347 | 17 | 227 | 3.2 | 9.7 | 0.00 | 0.00 | 0.00 | 87 | 1013.4 |
| 20260904040826 | 18 | 258 | 3.2 | 8.0 | 0.00 | 0.00 | 0.00 | 86 | 1013.3 |
| 20260904040327 | 18 | 216 | 3.2 | 11.3 | 0.00 | 0.00 | 0.00 | 86 | 1013.4 |
| 20260904035828 | 18 | 276 | 4.8 | 16.1 | 0.00 | 0.00 | 0.00 | 86 | 1013.3 |
| 20260904035330 | 18 | 270 | 6.4 | 16.1 | 0.00 | 0.00 | 0.00 | 86 | 1013.2 |
| 20260904034852 | 18 | 187 | 4.8 | 14.5 | 0.00 | 0.00 | 0.00 | 86 | 1013.2 |
| 20260904034353 | 18 | 251 | 6.4 | 11.3 | 0.00 | 0.00 | 0.00 | 86 | 1013.4 |
| 20260904033813 | 18 | 225 | 4.8 | 11.3 | 0.00 | 0.00 | 0.00 | 86 | 1013.5 |
| 20260904033335 | 18 | 244 | 4.8 | 12.9 | 0.00 | 0.00 | 0.00 | 86 | 1013.5 |
| 20260904032838 | 18 | 226 | 6.4 | 14.5 | 0.00 | 0.00 | 0.00 | 85 | 1013.7 |
| 20260904032343 | 18 | 269 | 6.4 | 14.5 | 0.00 | 0.00 | 0.00 | 85 | 1013.7 |
| 20260904031846 | 18 | 212 | 6.4 | 9.7 | 0.00 | 0.00 | 0.00 | 85 | 1013.6 |
| 20260904031330 | 18 | 255 | 4.8 | 9.7 | 0.00 | 0.00 | 0.00 | 85 | 1013.7 |
| 20260904030832 | 18 | 240 | 4.8 | 9.7 | 0.00 | 0.00 | 0.00 | 85 | 1013.6 |
| 20260904030314 | 18 | 266 | 4.8 | 9.7 | 0.00 | 0.00 | 0.00 | 85 | 1013.7 |
| 20260904025817 | 18 | 272 | 4.8 | 9.7 | 0.00 | 0.00 | 0.00 | 86 | 1013.6 |
| 20260904025340 | 18 | 227 | 3.2 | 9.7 | 0.00 | 0.00 | 0.00 | 85 | 1013.7 |
| 20260904024820 | 18 | 255 | 4.8 | 9.7 | 0.00 | 0.00 | 0.00 | 85 | 1013.8 |
| 20260904024341 | 18 | 261 | 4.8 | 11.3 | 0.00 | 0.00 | 0.00 | 85 | 1013.8 |
| 20260904023820 | 18 | 266 | 4.8 | 12.9 | 0.00 | 0.00 | 0.00 | 85 | 1013.8 |
| 20260904023320 | 18 | 257 | 4.8 | 12.9 | 0.00 | 0.00 | 0.00 | 85 | 1013.6 |
| 20260904022841 | 18 | 257 | 1.6 | 9.7 | 0.00 | 0.00 | 0.00 | 85 | 1013.8 |
| 20260904022320 | 18 | 283 | 4.8 | 12.9 | 0.00 | 0.00 | 0.00 | 85 | 1013.9 |
| 20260904021841 | 18 | 244 | 6.4 | 14.5 | 0.00 | 0.00 | 0.00 | 85 | 1014.0 |
| 20260904021320 | 18 | 267 | 8.0 | 14.5 | 0.00 | 0.00 | 0.00 | 85 | 1014.0 |
| 20260904020841 | 18 | 259 | 6.4 | 16.1 | 0.00 | 0.00 | 0.00 | 85 | 1014.0 |
| 20260904020341 | 18 | 272 | 6.4 | 11.3 | 0.00 | 0.00 | 0.00 | 85 | 1014.0 |
| 20260904015821 | 18 | 263 | 3.2 | 9.7 | 0.00 | 0.00 | 0.00 | 85 | 1014.0 |
| 20260904015322 | 18 | 248 | 4.8 | 14.5 | 0.00 | 0.00 | 0.00 | 85 | 1014.0 |
| 20260904014823 | 18 | 277 | 8.0 | 14.5 | 0.00 | 0.00 | 0.00 | 85 | 1014.0 |
| 20260904014324 | 18 | 249 | 6.4 | 12.9 | 0.00 | 0.00 | 0.00 | 85 | 1014.0 |
| 20260904013826 | 18 | 257 | 4.8 | 12.9 | 0.00 | 0.00 | 0.00 | 85 | 1013.9 |
| 20260904013329 | 18 | 271 | 4.8 | 14.5 | 0.00 | 0.00 | 0.00 | 85 | 1014.0 |
| 20260904012812 | 18 | 239 | 6.4 | 12.9 | 0.00 | 0.00 | 0.00 | 85 | 1014.1 |
| 20260904012314 | 18 | 298 | 4.8 | 14.5 | 0.00 | 0.00 | 0.00 | 85 | 1014.0 |
| 20260904011817 | 18 | 266 | 6.4 | 12.9 | 0.00 | 0.00 | 0.00 | 84 | 1014.0 |
| 20260904011319 | 18 | 254 | 6.4 | 11.3 | 0.00 | 0.00 | 0.00 | 84 | 1013.8 |
| 20260904010822 | 18 | 271 | 6.4 | 9.7 | 0.00 | 0.00 | 0.00 | 84 | 1013.9 |
| 20260904010325 | 18 | 230 | 4.8 | 11.3 | 0.00 | 0.00 | 0.00 | 84 | 1014.0 |
| 20260904005826 | 18 | 219 | 6.4 | 12.9 | 0.00 | 0.00 | 0.00 | 84 | 1013.9 |
| 20260904005328 | 18 | 237 | 3.2 | 12.9 | 0.00 | 0.00 | 0.00 | 84 | 1013.9 |
| 20260904004830 | 18 | 268 | 4.8 | 12.9 | 0.00 | 0.00 | 0.00 | 84 | 1014.0 |
| 20260904004341 | 18 | 257 | 8.0 | 12.9 | 0.00 | 0.00 | 0.00 | 84 | 1014.1 |
| 20260904003823 | 18 | 227 | 6.4 | 14.5 | 0.00 | 0.00 | 0.00 | 84 | 1014.1 |
| 20260904003326 | 18 | 249 | 6.4 | 14.5 | 0.00 | 0.00 | 0.00 | 84 | 1014.1 |
| 20260904002851 | 18 | 240 | 4.8 | 11.3 | 0.00 | 0.00 | 0.00 | 84 | 1014.1 |
| 20260904002313 | 18 | 283 | 6.4 | 14.5 | 0.00 | 0.00 | 0.00 | 84 | 1014.1 |
| 20260904001818 | 18 | 273 | 6.4 | 12.9 | 0.00 | 0.00 | 0.00 | 83 | 1014.2 |
| 20260904001324 | 18 | 272 | 6.4 | 12.9 | 0.00 | 0.00 | 0.00 | 84 | 1014.1 |
| 20260904000825 | 18 | 246 | 4.8 | 12.9 | 0.00 | 0.00 | 0.00 | 83 | 1014.2 |
| 20260904000328 | 18 | 273 | 4.8 | 11.3 | 0.00 | 0.00 | 0.00 | 83 | 1014.3 |
| 20260903235828 | 18 | 238 | 6.4 | 11.3 | 0.00 | 0.00 | 0.00 | 83 | 1014.3 |
| 20260903235331 | 18 | 220 | 6.4 | 12.9 | 0.00 | 0.00 | 0.00 | 83 | 1014.4 |
| 20260903234833 | 18 | 258 | 6.4 | 16.1 | 0.00 | 0.00 | 0.00 | 83 | 1014.4 |
| 20260903234353 | 18 | 235 | 6.4 | 17.7 | 0.00 | 0.00 | 0.00 | 82 | 1014.4 |
| 20260903233814 | 18 | 262 | 9.7 | 17.7 | 0.00 | 0.00 | 0.00 | 82 | 1014.4 |
| 20260903233315 | 18 | 264 | 8.0 | 14.5 | 0.00 | 0.00 | 0.00 | 83 | 1014.4 |
| 20260903232817 | 18 | 269 | 6.4 | 12.9 | 0.00 | 0.00 | 0.00 | 83 | 1014.5 |
| 20260903232319 | 18 | 243 | 4.8 | 20.9 | 0.00 | 0.00 | 0.00 | 83 | 1014.5 |
| 20260903231821 | 18 | 251 | 8.0 | 20.9 | 0.00 | 0.00 | 0.00 | 82 | 1014.5 |
| 20260903231322 | 18 | 255 | 9.7 | 19.3 | 0.00 | 0.00 | 0.00 | 82 | 1014.7 |
| 20260903230823 | 18 | 262 | 8.0 | 16.1 | 0.00 | 0.00 | 0.00 | 82 | 1014.8 |
| 20260903230321 | 18 | 277 | 6.4 | 17.7 | 0.00 | 0.00 | 0.00 | 82 | 1014.8 |
| 20260903225843 | 18 | 229 | 8.0 | 17.7 | 0.00 | 0.00 | 0.00 | 83 | 1014.6 |